Date,TemperatureHighF,TemperatureAvgF,TemperatureLowF,DewpointHighF,DewpointAvgF,DewpointLowF,HumidityHigh,HumidityAvg,HumidityLow,PressureMaxIn,PressureMinIn,WindSpeedMaxMPH,WindSpeedAvgMPH,GustSpeedMaxMPH,PrecipitationSumIn
2013-1-1,59.0,46.7,38.0,44.5,38.5,32.7,99,77,37,30.20,30.11,0,0,14,0.00
2013-1-2,58.0,44.7,35.0,41.0,37.1,33.2,94,77,50,30.15,30.06,6,0,14,0.00
2013-1-3,58.0,43.6,34.0,42.7,38.3,33.2,98,83,52,30.19,30.03,0,0,6,0.00
2013-1-4,59.0,45.9,37.0,45.7,40.4,37.0,100,83,54,30.16,30.11,0,0,1,0.00
2013-1-5,54.0,46.8,40.0,49.3,44.9,38.4,100,93,75,30.19,30.01,0,0,1,0.37
2013-1-6,57.0,50.3,43.0,50.2,48.2,43.0,100,93,74,30.09,30.00,0,0,5,0.02
2013-1-7,59.0,48.8,39.0,51.8,46.4,38.7,100,92,72,30.14,30.05,0,0,7,0.00
2013-1-8,59.0,48.5,40.0,51.8,46.0,40.0,100,92,70,30.15,30.08,0,0,9,0.00
2013-1-9,56.0,48.0,41.0,53.4,45.3,37.4,100,91,70,30.08,29.90,18,2,24,0.00
2013-1-10,55.0,46.1,39.0,39.8,36.8,33.1,94,72,44,30.05,29.95,15,5,18,0.00
2013-1-11,55.0,45.7,39.0,44.6,38.6,34.0,95,77,58,30.08,30.01,13,1,18,0.00
2013-1-12,53.0,43.3,34.0,39.7,33.2,24.7,96,71,36,30.12,30.03,0,0,1,0.00
2013-1-13,54.0,41.8,30.0,38.9,29.2,13.7,96,66,24,30.20,30.07,6,0,19,0.00
2013-1-14,53.0,45.6,36.0,37.8,25.0,14.7,90,47,27,30.30,30.11,10,0,19,0.00
2013-1-15,57.0,41.9,33.0,38.4,34.1,31.7,97,76,43,30.36,30.25,0,0,10,0.00
2013-1-16,60.0,43.8,33.0,41.8,36.5,31.5,96,78,46,30.30,30.18,0,0,1,0.00
2013-1-17,64.0,45.4,34.0,43.7,37.9,33.0,98,79,45,30.19,30.09,8,0,10,0.00
2013-1-18,64.0,55.0,42.0,44.7,40.4,36.9,83,59,44,30.14,30.09,4,0,37,0.00
2013-1-19,66.0,47.3,35.0,44.0,38.4,33.4,95,74,43,30.15,30.06,0,0,8,0.00
2013-1-20,64.0,48.4,37.0,42.9,37.5,34.3,93,69,40,30.14,30.07,6,0,13,0.00
2013-1-21,68.0,49.2,35.0,45.2,40.3,32.6,94,74,37,30.08,29.99,5,0,16,0.00
2013-1-22,66.0,51.2,38.0,47.7,42.3,35.3,94,74,44,30.07,29.98,0,0,14,0.00
2013-1-23,56.0,53.2,50.0,53.9,49.1,43.8,100,87,67,30.06,29.90,0,0,18,0.20
2013-1-24,61.0,55.4,52.0,57.0,54.2,52.0,100,96,84,30.13,30.01,0,0,5,0.00
2013-1-25,67.0,58.1,51.0,58.6,55.0,51.0,100,90,70,30.13,30.02,10,0,12,0.00
2013-1-26,59.0,53.4,44.0,53.7,46.9,40.1,100,80,54,30.02,29.94,18,4,24,0.00
2013-1-27,60.0,49.0,41.0,43.8,39.9,32.5,90,73,37,30.13,29.96,13,2,15,0.00
2013-1-28,62.0,51.2,43.0,47.3,42.3,38.8,87,73,45,30.18,30.03,13,3,18,0.00
2013-1-29,63.0,52.3,44.0,48.8,43.3,40.7,88,73,50,30.22,30.16,8,1,23,0.00
2013-2-5,60.0,53.4,48.0,51.5,48.6,45.3,97,84,71,30.04,29.96,14,3,24,0.00
2013-2-6,61.0,50.0,39.0,47.9,44.2,38.2,100,82,53,30.10,30.02,9,1,19,0.00
2013-2-7,58.0,50.0,42.0,50.7,44.2,35.3,100,83,44,30.07,29.93,11,1,15,0.10
2013-2-8,60.0,48.6,40.0,44.6,41.5,34.9,100,79,47,29.95,29.87,12,2,18,0.00
2013-2-9,63.0,50.8,40.0,39.6,34.6,29.2,84,56,31,30.05,29.90,9,1,37,0.00
2013-2-10,63.0,48.3,35.0,47.1,38.0,32.1,92,70,41,30.06,30.01,11,1,19,0.00
2013-2-11,69.0,55.8,43.0,46.0,35.7,29.3,88,50,25,30.18,30.02,6,0,37,0.00
2013-2-12,64.0,51.6,39.0,50.5,45.0,37.7,100,81,45,30.29,30.15,5,0,9,0.00
2013-2-13,65.0,51.2,39.0,52.7,46.0,39.0,100,85,47,30.23,30.17,8,1,13,0.00
2013-2-14,72.0,54.9,41.0,53.0,45.7,41.0,100,75,37,30.19,30.12,5,0,32,0.00
2013-2-15,72.0,56.6,44.0,49.4,46.5,42.3,97,72,41,30.24,30.13,6,0,10,0.00
2013-2-16,71.0,55.6,45.0,51.1,47.3,41.9,96,77,35,30.18,30.00,10,1,16,0.00
2013-2-17,66.0,54.3,43.0,50.2,47.0,42.1,100,79,48,30.02,29.94,10,0,28,0.00
2013-2-18,58.0,50.2,41.0,49.7,44.3,40.7,100,81,59,30.01,29.91,11,2,23,0.00
2013-2-19,54.0,48.5,41.0,48.2,42.1,35.8,97,79,52,29.91,29.73,19,2,27,0.14
2013-2-20,63.0,50.3,40.0,45.2,40.2,34.7,90,70,43,29.98,29.77,16,4,20,0.00
2013-2-21,65.0,53.2,42.0,45.6,40.1,32.7,88,64,33,30.08,29.94,13,2,22,0.00
2013-2-22,66.0,52.6,39.0,48.6,44.0,37.7,97,75,39,30.14,30.06,18,2,20,0.00
2013-2-23,63.0,54.1,48.0,51.0,42.0,32.4,96,66,35,30.14,30.05,15,5,21,0.00
2013-2-24,67.0,55.3,44.0,40.5,32.2,23.5,81,44,20,30.18,30.08,11,1,16,0.00
2013-2-25,69.0,53.0,41.0,48.9,44.0,39.4,97,74,41,30.19,30.12,13,1,17,0.00
2013-2-26,61.0,47.3,40.0,43.1,38.3,31.3,87,73,34,30.14,30.09,0,0,3,0.00
2013-2-27,71.0,58.4,40.0,50.6,44.4,36.6,93,64,32,30.28,30.13,13,1,37,0.00
2013-2-28,70.0,63.5,53.0,56.8,54.1,49.6,92,73,59,30.33,30.27,10,5,13,0.00
2013-3-1,75.0,64.3,46.0,57.8,52.7,46.0,100,68,43,30.31,30.21,10,3,10,0.00
2013-3-2,72.0,60.8,50.0,57.6,52.5,48.1,96,76,52,30.21,30.04,10,0,37,0.00
2013-3-3,70.0,59.6,53.0,54.0,52.0,47.9,95,78,46,30.04,30.00,9,2,37,0.00
2013-3-11,73.0,58.1,41.0,51.5,47.3,40.2,98,71,35,30.16,30.07,9,0,16,0.00
2013-3-12,76.0,57.8,46.0,57.3,50.9,45.5,100,81,44,30.10,30.05,11,2,16,0.00
2013-3-13,80.0,61.0,46.0,56.9,52.1,45.2,100,76,43,30.11,30.06,6,0,24,0.00
2013-3-14,72.0,59.7,50.0,57.2,51.2,46.0,96,75,41,30.11,30.04,10,2,22,0.00
2013-3-15,76.0,59.7,49.0,54.5,50.5,44.4,94,73,44,30.07,30.00,13,2,37,0.00
2013-3-16,74.0,58.6,45.0,54.4,48.1,44.2,99,72,40,30.05,29.98,21,4,27,0.00
2013-3-17,73.0,57.9,49.0,47.4,44.2,40.3,85,63,33,30.08,30.01,12,2,20,0.00
2013-3-18,67.0,55.7,45.0,52.6,47.4,42.2,94,75,52,30.05,29.97,13,1,27,0.00
2013-3-19,66.0,55.9,47.0,50.9,47.1,41.4,93,74,50,30.07,29.99,9,1,14,0.09
2013-3-20,62.0,55.5,51.0,57.8,53.1,46.3,100,92,82,30.05,29.96,7,0,15,0.13
2013-3-21,67.0,54.4,43.0,49.3,45.8,41.4,96,75,47,30.04,29.98,11,2,17,0.00
2013-3-22,69.0,55.0,45.0,44.4,40.3,32.7,85,61,27,30.03,29.96,14,3,29,0.01
2013-3-23,72.0,57.1,44.0,46.4,40.0,30.6,82,56,29,30.05,29.99,7,0,38,0.00
2013-3-24,72.0,56.0,45.0,51.6,46.1,42.5,94,72,37,30.03,29.97,7,1,16,0.00
2013-3-25,61.0,52.3,43.0,49.2,46.2,40.8,97,81,59,29.98,29.92,12,3,18,0.00
2013-3-26,68.0,54.3,46.0,51.8,47.5,44.4,96,79,50,29.96,29.90,11,2,18,0.00
2013-3-27,65.0,56.6,49.0,55.7,51.5,47.1,93,84,63,30.02,29.89,8,0,36,0.00
2013-3-28,69.0,59.6,53.0,57.4,53.8,51.0,97,82,57,30.06,29.98,5,0,11,0.00
2013-3-29,78.0,61.3,50.0,58.0,53.6,50.0,100,80,40,30.05,29.99,5,0,15,0.00
2013-3-30,70.0,60.7,55.0,57.6,54.3,49.3,96,81,50,30.04,29.97,10,0,24,0.06
2013-3-31,66.0,59.4,54.0,59.4,55.8,52.6,100,88,67,30.05,29.99,11,1,20,0.14
2013-4-1,66.0,58.9,53.0,59.6,55.6,51.7,100,90,67,30.16,30.02,10,1,14,0.08
2013-4-2,70.0,56.3,49.0,58.6,53.1,49.0,100,90,65,30.12,30.04,11,3,18,0.00
2013-4-3,76.0,57.5,48.0,58.1,52.4,48.0,100,86,47,30.06,29.97,10,1,19,0.00
2013-4-4,63.0,57.8,53.0,59.4,56.0,51.6,100,94,82,30.07,29.95,11,1,19,0.58
2013-4-5,65.0,59.0,55.0,56.8,54.2,51.1,98,85,63,30.14,30.06,11,2,27,0.01
2013-4-6,66.0,58.3,55.0,58.4,54.9,52.1,97,89,69,30.14,30.08,14,1,27,0.00
2013-4-7,67.0,58.4,53.0,57.3,52.3,48.0,99,81,59,30.11,29.81,18,2,29,0.14
2013-4-8,72.0,57.6,49.0,47.6,41.3,26.1,85,58,18,29.99,29.75,21,13,29,0.00
2013-4-9,81.0,64.3,52.0,49.8,41.1,28.1,71,47,15,30.12,29.98,15,3,19,0.00
2013-4-10,85.0,68.2,59.0,55.4,51.0,45.6,77,56,34,30.15,30.01,18,6,26,0.00
2013-4-11,77.0,61.5,51.0,52.9,49.5,46.5,92,67,37,30.03,29.85,17,4,25,0.00
2013-4-12,76.0,59.2,46.0,56.7,49.2,43.5,94,72,42,29.92,29.83,13,2,17,0.00
2013-4-13,70.0,58.9,49.0,51.4,46.2,42.3,88,64,45,29.90,29.83,16,3,23,0.00
2013-4-14,72.0,56.7,48.0,48.5,41.5,34.4,91,60,30,29.90,29.84,26,5,28,0.00
2013-4-15,61.0,52.7,45.0,48.5,41.5,34.3,95,68,38,29.90,29.81,27,9,32,0.00
2013-4-16,69.0,57.1,45.0,43.7,35.7,28.4,71,48,24,30.11,29.89,16,4,22,0.00
2013-4-17,72.0,63.5,56.0,43.5,33.2,26.1,56,33,18,30.20,30.11,10,2,24,0.00
2013-4-18,78.0,65.1,54.0,46.5,41.4,32.5,73,44,26,30.24,30.13,1,0,3,0.00
2013-4-19,81.0,64.2,48.0,54.9,49.2,43.7,91,62,33,30.20,30.09,0,0,0,0.00
2013-4-20,83.0,66.8,57.0,50.8,47.1,44.2,70,51,27,30.09,29.98,0,0,0,0.00
2013-4-21,88.0,66.9,50.0,54.5,48.3,42.9,90,57,23,30.02,29.93,0,0,0,0.00
2013-4-22,92.0,69.8,53.0,56.2,49.5,43.4,85,53,19,29.97,29.84,0,0,0,0.00
2013-4-23,84.0,71.0,50.0,50.3,34.4,22.4,95,31,13,30.00,29.92,0,0,0,0.00
2013-4-24,69.0,56.5,48.0,54.0,50.3,47.7,100,82,56,29.94,29.84,0,0,0,0.00
2013-4-25,65.0,57.8,53.0,53.0,51.0,49.2,89,79,62,30.09,29.93,0,0,0,0.00
2013-4-26,71.0,57.2,52.0,55.4,50.9,48.6,93,81,56,30.18,30.07,0,0,0,0.01
2013-4-27,77.0,57.8,49.0,58.5,51.7,48.7,100,82,52,30.17,30.04,0,0,0,0.00
2013-4-28,86.0,65.3,47.0,60.2,52.1,45.6,99,69,34,30.04,29.91,0,0,0,0.00
2013-4-29,89.0,71.0,55.0,57.5,52.4,49.2,85,56,27,29.92,29.81,0,0,0,0.00
2013-4-30,84.0,70.5,56.0,50.0,43.0,14.5,74,44,9,29.94,29.80,0,0,0,0.00
2013-5-1,89.0,75.4,62.0,43.4,25.4,16.0,27,16,9,30.10,29.91,0,0,0,0.00
2013-5-2,94.0,72.6,50.0,51.2,33.4,23.3,69,29,10,30.14,30.06,0,0,0,0.00
2013-5-3,91.0,71.6,52.0,47.0,38.7,29.8,61,33,18,30.10,29.81,0,0,0,0.00
2013-5-4,84.0,67.8,51.0,56.8,47.3,38.7,84,51,26,29.80,29.63,0,0,0,0.00
2013-5-5,67.0,61.2,56.0,52.6,51.1,49.5,86,70,56,29.84,29.68,0,0,0,0.00
2013-5-6,72.0,63.7,54.0,54.7,51.8,47.8,90,67,47,29.99,29.83,0,0,0,0.00
2013-5-7,74.0,63.2,55.0,56.5,53.7,49.1,93,73,42,30.05,29.96,0,0,0,0.00
2013-5-8,67.0,57.7,54.0,54.0,52.2,49.9,95,83,62,30.13,30.03,0,0,0,0.00
2013-5-9,68.0,58.5,52.0,53.5,51.3,49.4,92,78,57,30.17,30.07,0,0,0,0.00
2013-5-10,74.0,58.7,53.0,58.6,52.9,50.4,96,82,55,30.16,30.08,0,0,0,0.00
2013-5-11,83.0,62.3,51.0,60.6,54.0,49.0,100,78,43,30.12,30.04,0,0,0,0.00
2013-5-12,80.0,63.5,49.0,61.0,52.4,43.9,97,71,32,30.10,30.05,0,0,0,0.00
2013-5-13,82.0,63.3,48.0,60.5,53.1,45.8,98,72,44,30.05,29.94,0,0,0,0.00
2013-5-14,75.0,63.1,53.0,56.8,50.9,46.1,87,66,38,30.03,29.90,0,0,0,0.00
2013-5-15,74.0,60.6,51.0,51.2,47.2,42.8,85,64,35,30.04,29.96,0,0,0,0.00
2013-5-16,72.0,61.9,55.0,55.5,51.4,46.1,87,70,43,30.02,29.94,0,0,0,0.00
2013-5-17,69.0,58.9,49.0,49.8,46.9,43.1,93,67,42,30.04,29.94,0,0,0,0.00
2013-5-18,78.0,62.8,49.0,53.9,49.0,45.5,90,64,34,30.10,30.02,0,0,0,0.00
2013-5-19,85.0,68.6,55.0,49.3,46.2,38.8,75,49,23,30.09,29.99,0,0,0,0.01
2013-5-20,89.0,72.2,55.0,51.2,45.9,36.1,79,44,16,30.02,29.93,0,0,0,0.00
2013-5-21,72.0,60.7,53.0,49.3,45.8,40.3,81,60,38,29.99,29.90,0,0,0,0.00
2013-5-22,68.0,57.5,48.0,43.7,36.2,24.0,74,47,21,29.97,29.92,0,0,0,0.00
2013-5-23,71.0,57.9,45.0,46.6,42.9,40.3,87,60,34,30.00,29.89,0,0,0,0.00
2013-5-24,72.0,58.6,46.0,46.8,44.2,41.1,86,61,35,30.00,29.92,0,0,0,0.00
2013-5-25,71.0,58.3,49.0,50.9,46.9,43.3,85,68,37,30.03,29.93,0,0,0,0.00
2013-5-26,73.0,62.6,54.0,54.5,51.7,49.0,95,70,46,30.09,29.99,0,0,0,0.00
2013-5-27,65.0,61.4,54.0,58.9,55.9,49.9,98,83,67,30.10,29.99,0,0,0,0.04
2013-5-28,74.0,63.5,58.0,61.9,55.5,50.2,100,77,52,30.00,29.94,0,0,1,0.04
2013-5-29,75.0,64.1,55.0,57.4,52.4,48.6,88,67,46,29.96,29.91,0,0,0,0.00
2013-5-30,79.0,63.6,50.0,49.4,47.0,44.7,89,59,32,30.01,29.92,0,0,0,0.00
2013-5-31,90.0,70.3,52.0,54.0,47.4,41.3,78,49,19,30.02,29.95,0,0,0,0.00
2013-6-1,92.0,72.7,55.0,57.3,49.7,46.1,81,47,25,29.96,29.88,0,0,0,0.00
2013-6-2,77.0,65.4,55.0,58.2,52.3,47.5,89,64,46,29.88,29.67,0,0,0,0.00
2013-6-3,75.0,63.0,52.0,55.4,53.2,50.3,95,73,47,29.91,29.72,0,0,0,0.00
2013-6-4,71.0,61.6,56.0,54.5,52.9,51.8,91,75,53,30.01,29.86,0,0,0,0.00
2013-6-5,75.0,61.0,55.0,57.7,53.4,51.2,92,78,52,30.00,29.95,0,0,0,0.00
2013-6-6,79.0,61.3,53.0,58.7,53.7,51.4,96,78,46,29.96,29.86,0,0,0,0.00
2013-6-7,93.0,68.3,54.0,62.0,56.8,52.6,97,72,28,29.90,29.82,0,0,0,0.00
2013-6-8,87.0,69.9,58.0,61.8,57.9,54.1,90,68,40,29.86,29.75,0,0,0,0.00
2013-6-9,71.0,63.6,60.0,57.0,55.6,54.0,88,76,59,29.92,29.81,0,0,0,0.00
2013-6-10,67.0,62.0,58.0,58.1,54.9,52.8,97,78,64,29.98,29.82,0,0,0,0.00
2013-6-11,78.0,66.3,59.0,57.7,53.7,47.7,85,65,41,29.99,29.91,0,0,0,0.00
2013-6-12,82.0,65.7,53.0,55.0,47.6,45.3,78,55,29,29.97,29.92,9,0,37,0.00
2013-6-13,82.0,66.4,51.0,52.4,46.1,40.9,79,52,25,30.07,29.97,0,0,0,0.00
2013-6-14,85.0,71.2,59.0,53.7,46.9,40.4,70,45,22,30.01,29.81,0,0,0,0.00
2013-6-15,75.0,61.4,50.0,56.8,51.3,46.3,90,71,44,29.99,29.80,0,0,0,0.00
2013-6-16,83.0,66.5,53.0,52.0,49.9,47.8,87,59,33,30.05,29.97,0,0,0,0.00
2013-6-17,77.0,64.6,54.0,56.9,53.0,49.4,91,68,46,30.10,30.03,0,0,0,0.00
2013-6-18,71.0,62.6,55.0,55.4,51.3,47.3,91,69,43,30.05,29.99,0,0,0,0.00
2013-6-19,76.0,63.8,52.0,51.2,48.3,45.4,87,60,34,30.08,29.97,0,0,0,0.00
2013-6-20,80.0,65.8,54.0,51.5,47.3,41.1,77,55,26,30.04,29.96,0,0,0,0.00
2013-6-21,456.0,20.2,51.0,99.9,81.4,47.0,86,29,1,30.01,29.93,0,0,0,0.00
2013-6-22,456.0,0.0,200.0,99.9,99.9,99.9,1,1,1,29.98,29.86,0,0,0,0.00
2013-6-23,456.0,0.0,200.0,99.9,99.9,99.9,1,1,1,29.91,29.84,0,0,0,0.00
2013-6-24,456.0,0.0,200.0,99.9,99.9,99.9,1,1,1,29.94,29.83,0,0,0,0.00
2013-6-25,456.0,45.2,62.0,99.9,73.6,61.4,99,67,1,30.02,29.89,0,0,0,0.08
2013-6-26,82.0,70.0,62.0,65.1,62.2,58.6,100,79,50,30.10,30.00,0,0,0,0.00
2013-6-27,88.0,72.3,58.0,61.9,57.9,53.4,100,66,33,30.10,30.01,0,0,0,0.01
2013-6-28,99.0,78.1,62.0,63.9,58.5,51.8,88,55,24,30.02,29.93,0,0,0,0.00
2013-6-29,99.0,79.1,60.0,61.8,55.6,50.6,82,47,21,29.95,29.86,0,0,0,0.00
2013-6-30,85.0,71.4,61.0,59.7,54.9,51.9,74,57,42,29.91,29.85,0,0,0,0.00
2013-7-1,91.0,74.7,58.0,62.1,59.5,53.2,87,61,36,29.90,29.80,0,0,0,0.00
2013-7-2,85.0,70.1,62.0,61.6,58.8,55.4,87,70,41,30.00,29.87,0,0,0,0.00
2013-7-3,92.0,72.8,59.0,62.1,58.3,56.1,92,64,36,29.97,29.79,0,0,0,0.00
2013-7-4,94.0,75.0,63.0,62.5,56.7,45.4,76,56,26,29.84,29.72,0,0,0,0.00
2013-7-5,68.0,62.3,55.0,56.9,52.8,46.0,89,72,51,29.82,29.76,0,0,0,0.00
2013-7-6,71.0,60.0,53.0,56.4,53.1,50.1,91,79,59,29.87,29.79,0,0,0,0.00
2013-7-7,76.0,61.2,53.0,57.8,53.3,50.4,97,78,49,29.89,29.81,0,0,0,0.00
2013-7-8,75.0,60.5,55.0,57.8,53.4,51.5,95,79,51,30.01,29.86,0,0,0,0.00
2013-7-9,91.0,67.7,51.0,57.2,52.5,48.9,100,65,28,30.04,29.93,0,0,0,0.00
2013-7-10,80.0,61.1,52.0,57.6,52.6,49.2,99,77,39,30.01,29.91,0,0,0,0.00
2013-7-11,70.0,58.2,51.0,57.2,52.2,49.0,94,82,54,29.98,29.92,0,0,0,0.00
2013-7-12,74.0,60.0,54.0,56.8,52.7,50.2,91,78,48,29.96,29.87,0,0,0,0.00
2013-7-13,79.0,61.7,49.0,56.3,51.7,46.5,93,72,42,30.03,29.90,0,0,0,0.00
2013-7-14,77.0,60.0,52.0,56.8,52.6,49.9,97,79,44,30.01,29.94,0,0,0,0.00
2013-7-15,74.0,59.0,51.0,54.6,51.7,49.0,94,79,48,29.95,29.87,0,0,0,0.00
2013-7-16,69.0,60.7,56.0,56.1,53.4,51.1,89,78,59,30.06,29.91,0,0,0,0.00
2013-7-17,79.0,62.9,55.0,58.7,54.9,52.1,93,77,44,30.10,30.01,0,0,0,0.00
2013-7-18,83.0,62.6,53.0,58.8,54.5,51.7,100,78,38,30.07,29.96,0,0,0,0.00
2013-7-19,78.0,62.5,52.0,60.1,54.7,50.0,97,77,49,29.98,29.86,0,0,0,0.00
2013-7-20,60.0,55.4,53.0,54.8,52.2,49.8,94,89,82,29.91,29.86,0,0,0,0.00
2013-7-30,76.0,65.1,55.0,58.0,54.5,52.4,92,70,50,30.12,30.09,0,0,0,0.00
2013-7-31,78.0,62.6,55.0,58.6,53.0,49.7,93,73,42,30.10,30.00,0,0,0,0.00
2013-8-1,77.0,64.2,53.0,57.7,53.1,50.5,95,69,41,30.08,30.00,0,0,0,0.00
2013-8-2,75.0,63.3,52.0,58.0,53.5,47.9,90,72,47,30.02,29.92,0,0,0,0.00
2013-8-3,78.0,61.0,54.0,56.9,53.7,50.6,94,79,45,30.03,29.95,0,0,0,0.00
2013-8-4,73.0,59.0,54.0,56.7,53.3,51.4,92,82,52,30.05,29.98,0,0,0,0.00
2013-8-5,72.0,59.5,54.0,57.0,53.4,50.5,93,82,51,30.04,29.98,0,0,0,0.00
2013-8-6,75.0,61.2,54.0,58.0,53.9,51.4,94,79,49,30.09,29.99,0,0,0,0.00
2013-8-7,72.0,62.9,57.0,57.8,56.1,54.7,96,80,56,30.13,30.06,0,0,0,0.00
2013-8-8,74.0,62.3,56.0,58.7,55.4,52.5,93,79,51,30.06,30.00,0,0,0,0.00
2013-8-9,74.0,61.9,56.0,58.2,54.7,52.8,92,79,51,30.03,29.95,0,0,0,0.00
2013-8-10,78.0,63.7,57.0,59.7,56.4,54.4,92,79,47,30.08,30.01,0,0,0,0.00
2013-8-11,78.0,62.7,56.0,59.7,56.0,53.7,96,81,46,30.05,29.97,0,0,0,0.00
2013-8-12,74.0,62.1,56.0,59.6,55.4,51.6,96,81,48,30.03,29.95,0,0,0,0.00
2013-8-13,90.0,67.6,54.0,60.5,54.2,48.3,97,68,29,30.02,29.92,0,0,0,0.00
2013-8-14,87.0,67.0,54.0,60.1,54.4,48.0,84,66,29,29.99,29.92,0,0,0,0.00
2013-8-15,85.0,70.0,61.0,64.6,61.8,58.7,95,77,48,30.05,29.94,0,0,0,0.00
2013-8-16,87.0,68.7,59.0,63.7,59.1,53.6,97,75,38,30.10,30.01,0,0,0,0.00
2013-8-17,84.0,66.8,55.0,62.0,57.5,53.6,96,75,38,30.04,29.95,0,0,0,0.00
2013-8-18,92.0,72.1,57.0,62.1,58.9,55.1,98,69,30,29.97,29.89,0,0,0,0.00
2013-8-19,91.0,72.2,61.0,62.8,58.3,49.1,91,66,29,30.01,29.92,0,0,0,0.00
2013-8-20,78.0,66.0,61.0,60.7,58.6,56.4,93,78,52,30.00,29.92,0,0,0,0.00
2013-8-21,79.0,64.4,59.0,58.5,55.8,53.8,89,75,44,29.98,29.90,0,0,0,0.00
2013-8-22,76.0,63.0,57.0,55.5,54.4,52.7,93,75,48,30.00,29.92,0,0,0,0.03
2013-8-23,77.0,63.7,58.0,60.1,55.8,53.7,90,76,49,29.95,29.82,0,0,0,0.00
2013-8-24,81.0,65.4,55.0,60.0,56.3,53.1,96,75,43,29.92,29.84,0,0,0,0.00
2013-8-25,81.0,68.9,63.0,63.8,60.5,58.1,90,76,47,30.00,29.92,0,0,0,0.02
2013-8-26,79.0,66.5,60.0,60.6,56.3,49.0,93,72,40,30.04,29.96,0,0,0,0.00
2013-8-27,84.0,65.1,53.0,59.0,55.1,49.8,92,73,39,29.98,29.91,0,0,0,0.00
2013-8-28,84.0,67.7,58.0,62.9,60.4,57.0,100,80,46,29.99,29.89,0,0,0,0.00
2013-8-29,83.0,69.3,62.0,63.6,61.3,59.4,96,78,45,30.13,29.97,0,0,0,0.00
2013-8-30,91.0,72.6,61.0,63.3,59.6,54.7,95,68,30,30.10,29.94,0,0,0,0.00
2013-8-31,83.0,67.0,58.0,61.5,56.6,53.2,88,71,38,30.01,29.92,0,0,0,0.00
2013-9-1,82.0,66.3,56.0,62.3,57.1,52.9,94,74,38,29.97,29.92,0,0,0,0.00
2013-9-2,82.0,69.8,62.0,63.4,61.4,58.4,91,76,46,30.00,29.92,0,0,0,0.00
2013-9-3,79.0,67.3,57.0,59.4,55.1,46.4,91,68,34,29.99,29.93,0,0,0,0.00
2013-9-4,79.0,66.9,57.0,59.7,56.4,53.7,94,71,44,30.02,29.95,0,0,0,0.00
2013-9-5,80.0,67.8,58.0,57.7,54.6,51.2,92,66,38,30.02,29.95,0,0,0,0.00
2013-9-6,92.0,72.5,53.0,56.5,50.2,44.7,89,52,21,30.01,29.85,0,0,0,0.00
2013-9-7,95.0,74.4,57.0,60.9,49.2,41.6,78,46,17,29.90,29.84,0,0,0,0.00
2013-9-8,92.0,70.0,54.0,59.6,54.3,49.2,95,62,28,29.90,29.81,0,0,0,0.00
2013-9-9,90.0,69.1,55.0,60.3,54.4,50.9,90,63,29,29.92,29.83,0,0,0,0.00
2013-9-10,79.0,65.1,57.0,61.4,58.4,55.6,96,80,51,29.99,29.82,0,0,0,0.00
2013-9-11,76.0,67.1,64.0,60.4,58.5,57.2,85,74,55,30.02,29.97,0,0,0,0.00
2013-9-12,79.0,65.6,59.0,62.9,59.3,56.4,94,81,50,30.03,29.98,0,0,0,0.00
2013-9-13,80.0,63.1,57.0,60.1,56.2,53.6,96,80,42,29.97,29.87,0,0,0,0.00
2013-9-14,76.0,62.6,56.0,58.9,55.4,53.8,94,79,52,29.90,29.84,0,0,0,0.00
2013-9-15,79.0,64.6,54.0,60.9,56.1,52.3,97,77,43,29.98,29.83,0,0,0,0.00
2013-9-16,80.0,65.6,53.0,60.6,56.7,52.2,100,76,41,29.93,29.82,0,0,0,0.00
2013-9-17,69.0,58.4,53.0,56.4,54.1,51.4,96,86,58,29.89,29.84,0,0,0,0.00
2013-9-18,83.0,71.2,57.0,50.2,45.9,42.8,73,43,26,29.95,29.88,0,0,0,0.00
2013-9-19,88.0,65.7,50.0,54.1,47.2,41.0,86,57,21,29.91,29.82,0,0,0,0.00
2013-9-20,75.0,59.0,51.0,58.7,51.3,46.3,88,77,57,29.85,29.80,0,0,0,0.00
2013-9-23,81.0,69.4,54.0,58.8,56.6,49.3,90,66,47,30.02,29.92,0,0,0,0.00
2013-9-24,77.0,64.5,57.0,57.7,52.1,48.2,89,66,41,30.00,29.89,0,0,0,0.00
2013-9-25,71.0,60.9,52.0,49.2,46.1,40.1,83,60,34,29.92,29.84,0,0,0,0.00
2013-9-26,77.0,63.0,51.0,45.1,40.6,33.8,68,47,23,30.03,29.85,0,0,0,0.00
2013-9-27,80.0,66.9,55.0,42.8,37.1,31.5,61,35,21,30.09,30.02,0,0,0,0.00
2013-9-28,82.0,62.2,47.0,56.8,46.5,34.7,86,62,19,30.09,30.00,0,0,0,0.00
2013-9-29,74.0,64.5,56.0,62.7,58.4,54.0,97,82,60,30.10,30.04,0,0,0,0.00
2013-9-30,71.0,66.0,63.0,64.3,62.8,61.2,96,90,73,30.07,30.00,0,0,0,0.01
2013-10-4,66.0,66.0,66.0,26.0,26.0,26.0,22,22,22,30.02,30.02,0,0,0,0.00
2013-10-7,81.0,68.0,51.0,45.2,38.3,32.3,57,36,18,30.00,29.90,0,0,0,0.00
2013-10-8,72.0,59.2,46.0,48.6,44.3,40.2,85,60,37,29.92,29.77,0,0,0,0.00
2013-10-9,71.0,59.6,48.0,47.0,42.1,36.2,85,55,32,29.80,29.66,0,0,0,0.00
2013-10-10,65.0,58.1,49.0,49.5,44.5,36.5,87,62,36,30.01,29.79,0,0,0,0.00
2013-10-11,68.0,52.7,44.0,49.8,46.6,42.9,100,82,46,30.07,30.00,0,0,0,0.00
2013-10-12,68.0,53.0,41.0,52.5,45.7,40.2,100,79,37,29.99,29.92,0,0,0,0.00
2013-10-13,74.0,60.1,46.0,49.7,43.6,37.9,92,58,28,30.05,29.91,0,0,0,0.00
2013-10-14,77.0,59.2,41.0,45.6,38.7,33.1,88,52,24,30.10,29.98,0,0,0,0.00
2013-10-15,80.0,60.9,42.0,40.6,33.7,28.1,74,41,16,30.07,29.97,0,0,0,0.00
2013-10-16,80.0,61.3,42.0,37.8,33.4,30.1,65,38,18,30.11,30.01,0,0,0,0.00
2013-10-17,79.0,61.4,45.0,44.0,34.7,28.2,65,40,19,30.07,30.01,0,0,0,0.00
2013-10-18,79.0,58.8,43.0,48.2,41.5,30.1,94,59,24,30.12,29.99,0,0,0,0.00
2013-10-19,82.0,60.4,43.0,46.9,41.1,37.1,91,55,21,30.08,29.99,0,0,0,0.00
2013-10-20,78.0,56.0,42.0,49.4,44.8,40.7,97,71,32,30.02,29.92,0,0,0,0.00
2013-10-21,68.0,53.9,46.0,52.2,48.5,45.0,100,84,54,30.00,29.93,0,0,0,0.00
2013-10-22,77.0,54.2,42.0,52.1,47.1,42.0,100,81,33,30.04,29.96,0,0,0,0.00
2013-10-23,69.0,51.6,43.0,52.9,47.6,43.0,100,88,50,29.97,29.92,0,0,0,0.00
2013-10-24,64.0,52.3,47.0,50.7,47.5,46.3,100,85,54,30.09,29.94,0,0,0,0.00
2013-10-25,51.0,47.9,44.0,48.5,46.1,43.2,99,94,90,30.07,30.05,0,0,0,0.00
2013-10-28,61.0,54.2,44.0,48.2,45.4,41.8,94,74,54,29.82,29.64,0,0,0,0.00
2013-10-29,61.0,52.1,42.0,48.5,45.6,40.4,97,80,59,30.04,29.82,0,0,0,0.00
2013-10-30,66.0,51.7,38.0,50.7,44.4,37.7,100,79,47,30.12,30.00,0,0,0,0.00
2013-10-31,70.0,54.6,39.0,48.4,42.5,36.9,94,67,36,30.17,30.07,0,0,0,0.00
2013-11-1,76.0,57.5,42.0,47.6,42.4,36.6,87,60,30,30.16,30.06,0,0,0,0.00
2013-11-2,72.0,56.2,43.0,53.0,45.1,37.3,85,68,33,30.06,29.96,0,0,0,0.00
2013-11-3,66.0,55.2,44.0,40.9,35.0,26.0,72,49,22,30.04,29.93,0,0,0,0.00
2013-11-4,73.0,58.4,46.0,38.7,31.1,20.1,68,41,14,30.08,29.89,0,0,0,0.00
2013-11-5,72.0,59.9,48.0,41.8,34.8,30.1,63,41,24,30.22,30.04,0,0,0,0.00
2013-11-6,73.0,58.2,45.0,41.6,37.6,34.2,70,49,25,30.25,30.16,0,0,0,0.00
2013-11-7,74.0,60.1,49.0,51.9,41.3,35.8,90,53,27,30.17,30.09,0,0,0,0.00
2013-11-8,74.0,54.7,41.0,53.7,46.5,36.8,99,78,37,30.09,29.99,0,0,0,0.00
2013-11-9,72.0,53.6,39.0,47.6,43.8,37.3,98,74,39,30.07,29.96,0,0,0,0.00
2013-11-10,65.0,53.3,44.0,51.7,48.3,42.2,100,84,55,30.13,30.02,0,0,0,0.00
2013-11-11,66.0,54.0,44.0,50.9,47.7,43.2,100,81,51,30.16,30.06,0,0,0,0.00
2013-11-12,72.0,60.8,54.0,52.9,48.0,41.9,89,65,35,30.24,30.13,0,0,0,0.00
2013-11-13,77.0,57.2,43.0,53.6,49.7,41.7,99,79,42,30.23,30.10,0,0,0,0.00
2013-11-14,64.0,53.9,46.0,55.0,48.5,40.0,100,84,57,30.10,29.83,0,0,0,0.00
2013-11-15,66.0,54.3,43.0,42.0,40.0,35.2,86,61,32,29.85,29.79,0,0,0,0.00
2013-11-16,65.0,52.5,41.0,50.0,44.2,36.5,95,76,41,29.92,29.76,0,0,0,0.00
2013-11-17,61.0,50.5,41.0,49.9,45.5,40.4,100,84,62,30.08,29.90,0,0,0,0.00
2013-11-18,58.0,50.1,37.0,48.8,44.7,36.5,99,83,64,30.11,30.03,0,0,0,0.00
2013-11-19,57.0,54.1,50.0,57.0,53.0,45.7,100,96,82,30.07,29.91,0,0,0,0.75
2013-11-20,61.0,56.1,51.0,58.4,55.3,49.9,100,97,87,29.94,29.87,0,0,0,0.25
2013-11-21,64.0,56.7,51.0,51.0,35.3,19.0,100,55,19,30.02,29.89,0,0,0,0.00
2013-11-22,74.0,64.2,55.0,28.5,13.5,8.7,36,14,9,30.01,29.93,0,0,0,0.00
2013-11-23,65.0,53.3,43.0,36.8,31.6,25.8,64,45,26,30.07,29.97,0,0,0,0.00
2013-11-24,63.0,47.9,35.0,43.6,37.4,31.5,88,69,43,30.19,30.06,0,0,0,0.00
2013-11-25,63.0,48.0,37.0,45.6,41.4,35.7,99,80,51,30.29,30.18,0,0,0,0.00
2013-11-26,62.0,49.4,38.0,45.4,40.8,36.9,98,75,43,30.22,30.02,0,0,0,0.00
2013-11-27,67.0,52.6,41.0,46.6,41.9,35.0,86,69,41,30.02,29.89,0,0,0,0.00
2013-11-28,69.0,53.5,41.0,45.7,40.8,37.4,91,66,34,30.06,29.87,0,0,0,0.00
2013-11-29,68.0,52.1,39.0,46.4,42.0,36.0,94,71,39,30.17,30.04,0,0,0,0.00
2013-11-30,65.0,51.5,40.0,48.4,43.0,37.9,95,75,45,30.21,30.14,0,0,0,0.00
2013-12-1,70.0,53.3,40.0,48.9,43.6,39.0,98,73,41,30.33,30.18,0,0,0,0.00
2013-12-2,66.0,52.1,39.0,55.7,47.2,38.2,99,85,51,30.19,29.93,0,0,0,0.00
2013-12-3,57.0,50.8,42.0,54.3,34.3,25.4,94,55,35,29.95,29.82,0,0,0,0.00
2013-12-4,52.0,42.2,29.0,31.8,23.5,15.4,80,51,24,30.05,29.89,0,0,0,0.00
2013-12-5,51.0,37.3,25.0,31.1,22.0,11.7,86,59,22,30.13,29.97,0,0,0,0.00
2013-12-6,50.0,38.6,26.0,48.1,32.9,23.2,99,81,48,30.12,29.86,0,0,0,0.29
2013-12-7,48.0,41.5,32.0,46.2,31.3,24.2,97,69,39,30.13,29.86,0,0,0,0.00
2013-12-8,46.0,35.0,28.0,31.4,26.1,21.7,91,72,41,30.23,30.10,0,0,0,0.00
2013-12-9,51.0,35.7,24.0,30.9,23.6,19.0,90,65,28,30.31,30.16,0,0,0,0.00
2013-12-10,51.0,37.1,26.0,33.0,27.3,21.3,88,70,45,30.26,30.09,0,0,0,0.00
2013-12-11,58.0,41.6,29.0,36.9,31.1,24.8,88,69,37,30.17,30.06,0,0,0,0.00
2013-12-12,58.0,43.4,31.0,38.7,33.4,27.0,93,70,42,30.20,30.10,0,0,0,0.00
2013-12-13,59.0,42.7,29.0,42.3,35.7,28.8,100,79,43,30.24,30.13,0,0,0,0.00
2013-12-14,59.0,43.7,30.0,41.5,36.0,28.7,98,77,48,30.31,30.20,0,0,0,0.00
2013-12-15,61.0,44.8,33.0,41.3,36.4,30.7,94,75,43,30.27,30.17,0,0,0,0.00
2013-12-16,65.0,48.1,37.0,41.8,37.7,33.2,89,70,38,30.16,30.09,0,0,0,0.00
2013-12-17,63.0,48.5,38.0,43.3,39.3,33.0,92,73,44,30.14,29.99,0,0,0,0.00
2013-12-18,63.0,48.3,37.0,48.2,41.8,33.8,92,80,43,30.00,29.72,0,0,0,0.00
2013-12-19,63.0,52.8,45.0,44.4,30.1,14.0,85,48,21,29.89,29.67,0,0,0,0.00
2013-12-20,64.0,50.4,40.0,39.1,26.6,13.4,67,41,22,30.01,29.86,0,0,0,0.00
2013-12-21,67.0,49.5,36.0,48.7,41.6,32.3,96,76,51,30.05,29.93,0,0,0,0.00
2013-12-22,62.0,48.3,36.0,43.8,38.7,35.0,100,73,42,30.24,30.05,0,0,0,0.00
2013-12-23,62.0,47.5,35.0,41.9,38.1,32.1,93,72,45,30.33,30.21,0,0,0,0.00
2013-12-24,67.0,49.3,37.0,44.2,39.4,34.6,94,72,41,30.27,30.19,0,0,0,0.00
2013-12-25,64.0,47.5,34.0,43.7,38.6,32.2,95,74,41,30.23,30.15,0,0,0,0.00
2013-12-26,65.0,47.1,34.0,43.3,35.9,31.5,94,69,35,30.21,30.13,0,0,0,0.00
2013-12-27,60.0,46.2,34.0,39.7,35.2,29.7,86,68,40,30.16,30.03,0,0,0,0.00
2013-12-28,66.0,45.0,32.0,40.4,33.4,28.8,93,68,30,30.05,30.00,0,0,0,0.00
2013-12-29,66.0,49.9,37.0,36.5,30.6,25.2,79,49,25,30.14,30.00,0,0,0,0.00
2013-12-30,62.0,45.7,34.0,40.2,34.9,28.8,85,68,42,30.20,30.08,0,0,0,0.00
2013-12-31,61.0,46.9,37.0,42.6,37.7,33.8,98,74,38,30.17,30.10,0,0,0,0.00
2014-1-1,63.0,45.6,31.0,40.6,34.8,30.0,98,70,35,30.13,30.07,0,0,0,0.00
2014-1-2,63.0,48.8,36.0,39.5,36.0,30.8,86,64,39,30.11,30.02,0,0,0,0.00